When you browse on this site, cookies collect data to enhance your experience and personalize the content and advertising you see.
Visit our Privacy Policy to learn more. By continuing to use the site, you agree to this use of cookies and data.
  • In Schweiz
  • Länderverzeichnis
  • Für 7 Tage
  • Wassertemperatur
  • Satellitenkarten
  • Wetterkarte
  • Widgets
  • user-avatar
    Anmelden

    Stündliche Wetter Kurcy

    Heute, 18 Juni, Dienstag

    Zeit Temperatur Niederschläge Wind Luftdruck Luftfeuchtigkeit
    00:00 +18°C° 0 mm 1 m/S 747 mmHg 85%
    01:00 +18°C° 0 mm 1 m/S 747 mmHg 86%
    02:00 +17°C° 0 mm 2 m/S 747 mmHg 87%
    03:00 +17°C° 0 mm 2 m/S 746 mmHg 85%
    04:00 +17°C° 0 mm 2 m/S 746 mmHg 86%
    05:00 +18°C° 0 mm 2 m/S 746 mmHg 86%
    06:00 +18°C° 0 mm 2 m/S 746 mmHg 86%
    07:00 +20°C° 0.2 mm 3 m/S 746 mmHg 83%
    08:00 +21°C° 0.2 mm 3 m/S 746 mmHg 81%
    09:00 +22°C° 0.2 mm 3 m/S 746 mmHg 78%
    10:00 +24°C° 1.4 mm 3 m/S 746 mmHg 76%
    11:00 +25°C° 1.4 mm 4 m/S 746 mmHg 75%
    12:00 +25°C° 1.4 mm 4 m/S 745 mmHg 73%
    13:00 +26°C° 1.5 mm 4 m/S 745 mmHg 73%
    14:00 +26°C° 1.5 mm 3 m/S 745 mmHg 72%
    15:00 +26°C° 1.5 mm 3 m/S 745 mmHg 72%
    16:00 +26°C° 0.8 mm 3 m/S 745 mmHg 75%
    17:00 +25°C° 0.8 mm 3 m/S 745 mmHg 77%
    18:00 +25°C° 0.8 mm 3 m/S 745 mmHg 79%
    19:00 +24°C° 0.1 mm 2 m/S 745 mmHg 83%
    20:00 +21°C° 0.1 mm 2 m/S 745 mmHg 86%
    21:00 +19°C° 0.1 mm 2 m/S 745 mmHg 89%
    22:00 +19°C° 0 mm 2 m/S 745 mmHg 89%
    23:00 +18°C° 0 mm 2 m/S 746 mmHg 89%

    Morgen, 19 Juni, Mittwoch

    Zeit Temperatur Niederschläge Wind Luftdruck Luftfeuchtigkeit
    00:00 +18°C° 0 mm 2 m/S 746 mmHg 88%
    01:00 +17°C° 0 mm 2 m/S 746 mmHg 89%
    02:00 +17°C° 0 mm 2 m/S 746 mmHg 90%
    03:00 +16°C° 0 mm 3 m/S 746 mmHg 91%
    04:00 +17°C° 0 mm 3 m/S 746 mmHg 90%
    05:00 +17°C° 0 mm 3 m/S 747 mmHg 89%
    06:00 +17°C° 0 mm 3 m/S 747 mmHg 89%
    07:00 +19°C° 0 mm 3 m/S 747 mmHg 84%
    08:00 +20°C° 0 mm 3 m/S 747 mmHg 80%
    09:00 +22°C° 0 mm 3 m/S 748 mmHg 75%
    10:00 +24°C° 0 mm 3 m/S 748 mmHg 71%
    11:00 +25°C° 0 mm 3 m/S 748 mmHg 66%
    12:00 +25°C° 0 mm 3 m/S 748 mmHg 62%
    13:00 +26°C° 0 mm 3 m/S 748 mmHg 61%
    14:00 +26°C° 0 mm 3 m/S 748 mmHg 60%
    15:00 +26°C° 0 mm 4 m/S 748 mmHg 58%
    16:00 +26°C° 0 mm 3 m/S 748 mmHg 63%
    17:00 +25°C° 0 mm 3 m/S 748 mmHg 67%
    18:00 +25°C° 0 mm 3 m/S 748 mmHg 72%
    19:00 +23°C° 0 mm 2 m/S 748 mmHg 74%
    20:00 +21°C° 0 mm 2 m/S 748 mmHg 76%
    21:00 +20°C° 0 mm 1 m/S 748 mmHg 78%
    22:00 +18°C° 0 mm 2 m/S 748 mmHg 77%
    23:00 +18°C° 0 mm 2 m/S 748 mmHg 76%

    übermorgen, 20 Juni, Donnerstag

    Zeit Temperatur Niederschläge Wind Luftdruck Luftfeuchtigkeit
    00:00 +17°C° 0 mm 2 m/S 749 mmHg 75%
    01:00 +17°C° 0 mm 2 m/S 749 mmHg 77%
    02:00 +17°C° 0 mm 2 m/S 749 mmHg 79%
    03:00 +16°C° 0 mm 2 m/S 749 mmHg 81%
    04:00 +18°C° 0 mm 1 m/S 749 mmHg 82%
    05:00 +19°C° 0 mm 1 m/S 749 mmHg 82%
    06:00 +19°C° 0 mm 1 m/S 749 mmHg 82%
    07:00 +21°C° 0 mm 1 m/S 749 mmHg 77%
    08:00 +23°C° 0 mm 1 m/S 750 mmHg 72%
    09:00 +24°C° 0 mm 1 m/S 750 mmHg 67%
    10:00 +25°C° 0 mm 1 m/S 750 mmHg 62%
    11:00 +26°C° 0 mm 1 m/S 750 mmHg 57%
    12:00 +27°C° 0 mm 1 m/S 750 mmHg 53%
    13:00 +27°C° 0 mm 1 m/S 750 mmHg 51%
    14:00 +27°C° 0 mm 1 m/S 749 mmHg 50%
    15:00 +28°C° 0 mm 1 m/S 749 mmHg 49%
    16:00 +28°C° 0 mm 1 m/S 749 mmHg 52%
    17:00 +27°C° 0 mm 1 m/S 749 mmHg 56%
    18:00 +27°C° 0 mm 1 m/S 749 mmHg 60%
    19:00 +25°C° 0 mm 1 m/S 749 mmHg 63%
    20:00 +23°C° 0 mm 1 m/S 749 mmHg 66%
    21:00 +21°C° 0 mm 1 m/S 749 mmHg 69%
    22:00 +21°C° 0 mm 1 m/S 749 mmHg 71%
    23:00 +20°C° 0 mm 1 m/S 749 mmHg 73%

    21 Juni, Freitag

    Zeit Temperatur Niederschläge Wind Luftdruck Luftfeuchtigkeit
    00:00 +20°C° 0 mm 1 m/S 749 mmHg 76%
    01:00 +19°C° 0 mm 1 m/S 750 mmHg 77%
    02:00 +19°C° 0 mm 1 m/S 750 mmHg 78%
    03:00 +18°C° 0 mm 1 m/S 750 mmHg 79%
    04:00 +19°C° 0 mm 1 m/S 750 mmHg 79%
    05:00 +18°C° 0 mm 0 m/S 750 mmHg 79%
    06:00 +19°C° 0 mm 0 m/S 750 mmHg 79%
    07:00 +20°C° 0 mm 0 m/S 750 mmHg 75%
    08:00 +23°C° 0 mm 1 m/S 750 mmHg 70%
    09:00 +25°C° 0 mm 1 m/S 751 mmHg 66%
    10:00 +25°C° 0 mm 1 m/S 751 mmHg 61%
    11:00 +26°C° 0 mm 1 m/S 751 mmHg 57%
    12:00 +27°C° 0 mm 1 m/S 751 mmHg 53%
    13:00 +27°C° 0 mm 1 m/S 750 mmHg 54%
    14:00 +27°C° 0 mm 2 m/S 750 mmHg 54%
    15:00 +27°C° 0 mm 2 m/S 750 mmHg 55%
    16:00 +27°C° 0 mm 1 m/S 750 mmHg 58%
    17:00 +27°C° 0 mm 1 m/S 750 mmHg 60%
    18:00 +27°C° 0 mm 1 m/S 749 mmHg 63%
    19:00 +26°C° 0 mm 1 m/S 750 mmHg 65%
    20:00 +24°C° 0 mm 1 m/S 750 mmHg 68%
    21:00 +22°C° 0 mm 1 m/S 750 mmHg 70%
    22:00 +22°C° 0 mm 1 m/S 750 mmHg 71%
    23:00 +21°C° 0 mm 1 m/S 750 mmHg 72%

    22 Juni, Samstag

    Zeit Temperatur Niederschläge Wind Luftdruck Luftfeuchtigkeit
    00:00 +19°C° 0 mm 2 m/S 750 mmHg 73%
    01:00 +19°C° 0 mm 2 m/S 750 mmHg 74%
    02:00 +19°C° 0 mm 2 m/S 750 mmHg 74%
    03:00 +18°C° 0 mm 2 m/S 750 mmHg 75%
    04:00 +19°C° 0 mm 2 m/S 750 mmHg 77%
    05:00 +19°C° 0 mm 2 m/S 750 mmHg 79%
    06:00 +20°C° 0 mm 2 m/S 750 mmHg 80%
    07:00 +21°C° 0 mm 2 m/S 750 mmHg 77%
    08:00 +24°C° 0 mm 2 m/S 750 mmHg 74%
    09:00 +26°C° 0 mm 3 m/S 750 mmHg 71%
    10:00 +26°C° 0 mm 3 m/S 750 mmHg 66%
    11:00 +27°C° 0 mm 3 m/S 750 mmHg 61%
    12:00 +28°C° 0 mm 3 m/S 750 mmHg 57%
    13:00 +28°C° 0 mm 4 m/S 750 mmHg 57%
    14:00 +28°C° 0 mm 4 m/S 750 mmHg 58%
    15:00 +29°C° 0 mm 4 m/S 750 mmHg 58%
    16:00 +28°C° 0 mm 4 m/S 749 mmHg 62%
    17:00 +28°C° 0 mm 3 m/S 749 mmHg 66%
    18:00 +28°C° 0 mm 3 m/S 749 mmHg 71%
    19:00 +26°C° 0 mm 3 m/S 749 mmHg 73%
    20:00 +25°C° 0 mm 2 m/S 749 mmHg 76%
    21:00 +23°C° 0 mm 2 m/S 749 mmHg 79%
    22:00 +23°C° 0 mm 2 m/S 749 mmHg 79%
    23:00 +21°C° 0 mm 2 m/S 749 mmHg 79%

    23 Juni, Sonntag

    Zeit Temperatur Niederschläge Wind Luftdruck Luftfeuchtigkeit
    00:00 +21°C° 0 mm 3 m/S 749 mmHg 79%
    01:00 +20°C° 0 mm 3 m/S 749 mmHg 80%
    02:00 +20°C° 0 mm 3 m/S 749 mmHg 82%
    03:00 +20°C° 0 mm 3 m/S 750 mmHg 84%
    04:00 +20°C° 0 mm 3 m/S 750 mmHg 84%
    05:00 +20°C° 0 mm 3 m/S 750 mmHg 85%
    06:00 +21°C° 0 mm 3 m/S 750 mmHg 86%
    07:00 +22°C° 0 mm 3 m/S 750 mmHg 82%
    08:00 +25°C° 0 mm 3 m/S 750 mmHg 78%
    09:00 +26°C° 0 mm 3 m/S 750 mmHg 75%
    10:00 +27°C° 0.1 mm 3 m/S 750 mmHg 71%
    11:00 +28°C° 0.1 mm 3 m/S 750 mmHg 67%
    12:00 +29°C° 0.1 mm 3 m/S 750 mmHg 63%
    13:00 +30°C° 0 mm 3 m/S 750 mmHg 61%
    14:00 +30°C° 0 mm 4 m/S 750 mmHg 60%
    15:00 +30°C° 0 mm 4 m/S 749 mmHg 58%
    16:00 +30°C° 0.2 mm 3 m/S 749 mmHg 63%
    17:00 +29°C° 0.2 mm 3 m/S 749 mmHg 67%
    18:00 +29°C° 0.2 mm 2 m/S 749 mmHg 72%
    19:00 +27°C° 0.1 mm 2 m/S 749 mmHg 75%
    20:00 +26°C° 0.1 mm 2 m/S 749 mmHg 77%
    21:00 +24°C° 0.1 mm 1 m/S 749 mmHg 80%
    22:00 +23°C° 0 mm 2 m/S 749 mmHg 81%
    23:00 +23°C° 0 mm 2 m/S 749 mmHg 83%
    Mehr zeigen